EN

Hourly Weather Ladan

Today, 4 August, Wednesday

Time Temperature Precipitation Wind Pressure Humidity
00:00 +18°C° 0 mm 2 mps 750 mmHg 62%
01:00 +18°C° 0 mm 2 mps 750 mmHg 66%
02:00 +17°C° 0 mm 2 mps 750 mmHg 69%
03:00 +17°C° 0 mm 2 mps 750 mmHg 70%
04:00 +16°C° 0 mm 2 mps 751 mmHg 71%
05:00 +16°C° 0 mm 1 mps 751 mmHg 71%
06:00 +19°C° 0 mm 1 mps 751 mmHg 62%
07:00 +21°C° 0 mm 1 mps 751 mmHg 53%
08:00 +24°C° 0 mm 1 mps 751 mmHg 44%
09:00 +25°C° 0 mm 1 mps 752 mmHg 41%
10:00 +26°C° 0 mm 2 mps 752 mmHg 38%
11:00 +27°C° 0 mm 2 mps 752 mmHg 35%
12:00 +28°C° 0 mm 2 mps 751 mmHg 34%
13:00 +28°C° 0 mm 3 mps 751 mmHg 33%
14:00 +28°C° 0 mm 3 mps 751 mmHg 33%
15:00 +28°C° 0 mm 3 mps 751 mmHg 33%
16:00 +28°C° 0 mm 2 mps 750 mmHg 33%
17:00 +28°C° 0 mm 2 mps 750 mmHg 33%
18:00 +27°C° 0 mm 2 mps 750 mmHg 38%
19:00 +25°C° 0 mm 2 mps 750 mmHg 42%
20:00 +23°C° 0 mm 2 mps 750 mmHg 46%
21:00 +22°C° 0 mm 1 mps 750 mmHg 48%
22:00 +21°C° 0 mm 1 mps 750 mmHg 50%
23:00 +21°C° 0 mm 1 mps 750 mmHg 51%

Tomorrow, 5 August, Thursday

Time Temperature Precipitation Wind Pressure Humidity
00:00 +20°C° 0 mm 1 mps 750 mmHg 52%
01:00 +19°C° 0 mm 2 mps 750 mmHg 53%
02:00 +19°C° 0 mm 2 mps 750 mmHg 54%
03:00 +19°C° 0 mm 3 mps 750 mmHg 54%
04:00 +19°C° 0 mm 3 mps 750 mmHg 53%
05:00 +19°C° 0 mm 3 mps 749 mmHg 53%
06:00 +20°C° 0 mm 3 mps 749 mmHg 52%
07:00 +21°C° 0 mm 3 mps 749 mmHg 52%
08:00 +22°C° 0 mm 3 mps 749 mmHg 52%
09:00 +24°C° 0 mm 3 mps 749 mmHg 50%
10:00 +25°C° 0 mm 3 mps 749 mmHg 49%
11:00 +26°C° 0 mm 3 mps 749 mmHg 48%
12:00 +25°C° 0.1 mm 3 mps 749 mmHg 52%
13:00 +25°C° 0.1 mm 2 mps 748 mmHg 56%
14:00 +24°C° 0.1 mm 2 mps 748 mmHg 61%
15:00 +26°C° 0 mm 2 mps 747 mmHg 55%
16:00 +27°C° 0 mm 3 mps 747 mmHg 50%
17:00 +28°C° 0 mm 3 mps 746 mmHg 44%
18:00 +26°C° 0.4 mm 3 mps 746 mmHg 54%
19:00 +24°C° 0.4 mm 3 mps 746 mmHg 64%
20:00 +21°C° 0.4 mm 3 mps 745 mmHg 74%
21:00 +21°C° 0.3 mm 3 mps 745 mmHg 75%
22:00 +20°C° 0.3 mm 3 mps 745 mmHg 77%
23:00 +20°C° 0.3 mm 4 mps 745 mmHg 78%

Day after tomorrow, 6 August, Friday

Time Temperature Precipitation Wind Pressure Humidity
00:00 +20°C° 0.1 mm 4 mps 745 mmHg 79%
01:00 +20°C° 0.1 mm 4 mps 744 mmHg 79%
02:00 +20°C° 0.1 mm 4 mps 744 mmHg 79%
03:00 +20°C° 0 mm 5 mps 744 mmHg 77%
04:00 +21°C° 0 mm 5 mps 744 mmHg 76%
05:00 +21°C° 0 mm 5 mps 744 mmHg 74%
06:00 +22°C° 0 mm 5 mps 744 mmHg 69%
07:00 +25°C° 0 mm 5 mps 744 mmHg 65%
08:00 +26°C° 0 mm 5 mps 744 mmHg 60%
09:00 +28°C° 0.1 mm 5 mps 744 mmHg 54%
10:00 +29°C° 0.1 mm 6 mps 744 mmHg 48%
11:00 +30°C° 0.1 mm 6 mps 744 mmHg 42%
12:00 +32°C° 0 mm 6 mps 743 mmHg 39%
13:00 +33°C° 0 mm 6 mps 743 mmHg 35%
14:00 +34°C° 0 mm 6 mps 743 mmHg 32%
15:00 +33°C° 0 mm 5 mps 743 mmHg 36%
16:00 +32°C° 0 mm 4 mps 743 mmHg 40%
17:00 +30°C° 0 mm 3 mps 743 mmHg 44%
18:00 +28°C° 0 mm 2 mps 742 mmHg 49%
19:00 +27°C° 0 mm 2 mps 742 mmHg 53%
20:00 +26°C° 0 mm 2 mps 742 mmHg 57%
21:00 +25°C° 0 mm 2 mps 742 mmHg 60%
22:00 +25°C° 0 mm 2 mps 742 mmHg 62%
23:00 +24°C° 0 mm 3 mps 743 mmHg 65%

7 August, Saturday

Time Temperature Precipitation Wind Pressure Humidity
00:00 +22°C° 0.4 mm 3 mps 743 mmHg 71%
01:00 +21°C° 0.4 mm 2 mps 743 mmHg 78%
02:00 +20°C° 0.4 mm 2 mps 743 mmHg 84%
03:00 +20°C° 0.6 mm 2 mps 743 mmHg 86%
04:00 +20°C° 0.6 mm 2 mps 743 mmHg 87%
05:00 +20°C° 0.6 mm 2 mps 743 mmHg 89%
06:00 +21°C° 0.5 mm 2 mps 743 mmHg 85%
07:00 +23°C° 0.5 mm 2 mps 743 mmHg 82%
08:00 +24°C° 0.5 mm 2 mps 743 mmHg 78%
09:00 +26°C° 0.1 mm 2 mps 743 mmHg 71%
10:00 +27°C° 0.1 mm 2 mps 743 mmHg 63%
11:00 +29°C° 0.1 mm 1 mps 743 mmHg 56%
12:00 +29°C° 0.1 mm 1 mps 743 mmHg 53%
13:00 +30°C° 0.1 mm 1 mps 743 mmHg 51%
14:00 +31°C° 0.1 mm 1 mps 743 mmHg 48%
15:00 +30°C° 0.2 mm 2 mps 743 mmHg 54%
16:00 +29°C° 0.2 mm 3 mps 743 mmHg 59%
17:00 +28°C° 0.2 mm 4 mps 743 mmHg 65%
18:00 +26°C° 0.3 mm 5 mps 744 mmHg 70%
19:00 +25°C° 0.3 mm 5 mps 744 mmHg 75%
20:00 +22°C° 0.3 mm 5 mps 744 mmHg 81%
21:00 +22°C° 0.5 mm 5 mps 745 mmHg 83%
22:00 +21°C° 0.5 mm 4 mps 745 mmHg 85%
23:00 +21°C° 0.5 mm 4 mps 746 mmHg 87%

8 August, Sunday

Time Temperature Precipitation Wind Pressure Humidity
00:00 +20°C° 0.2 mm 4 mps 746 mmHg 87%
01:00 +19°C° 0.2 mm 4 mps 746 mmHg 87%
02:00 +19°C° 0.2 mm 4 mps 746 mmHg 87%
03:00 +18°C° 0.1 mm 4 mps 746 mmHg 89%
04:00 +18°C° 0.1 mm 4 mps 746 mmHg 90%
05:00 +17°C° 0.1 mm 4 mps 746 mmHg 91%
06:00 +19°C° 0 mm 5 mps 747 mmHg 84%
07:00 +20°C° 0 mm 5 mps 747 mmHg 77%
08:00 +22°C° 0 mm 5 mps 747 mmHg 70%
09:00 +23°C° 0 mm 5 mps 748 mmHg 62%
10:00 +26°C° 0 mm 5 mps 748 mmHg 53%
11:00 +27°C° 0 mm 5 mps 748 mmHg 45%
12:00 +28°C° 0 mm 5 mps 748 mmHg 42%
13:00 +29°C° 0 mm 5 mps 748 mmHg 39%
14:00 +29°C° 0 mm 5 mps 748 mmHg 36%
15:00 +29°C° 0 mm 5 mps 748 mmHg 37%
16:00 +29°C° 0 mm 5 mps 749 mmHg 39%
17:00 +29°C° 0 mm 4 mps 749 mmHg 40%
18:00 +27°C° 0 mm 4 mps 749 mmHg 45%
19:00 +25°C° 0 mm 3 mps 750 mmHg 50%
20:00 +22°C° 0 mm 3 mps 750 mmHg 56%
21:00 +21°C° 0 mm 3 mps 750 mmHg 57%
22:00 +20°C° 0 mm 2 mps 750 mmHg 59%
23:00 +19°C° 0 mm 2 mps 751 mmHg 60%

9 August, Monday

Time Temperature Precipitation Wind Pressure Humidity
00:00 +19°C° 0 mm 2 mps 751 mmHg 61%
01:00 +18°C° 0 mm 2 mps 751 mmHg 62%
02:00 +18°C° 0 mm 2 mps 751 mmHg 62%
03:00 +18°C° 0 mm 2 mps 751 mmHg 63%
04:00 +18°C° 0 mm 2 mps 751 mmHg 64%
05:00 +17°C° 0 mm 2 mps 751 mmHg 65%
06:00 +19°C° 0 mm 2 mps 751 mmHg 60%
07:00 +23°C° 0 mm 2 mps 752 mmHg 54%
08:00 +25°C° 0 mm 2 mps 752 mmHg 48%
09:00 +26°C° 0 mm 2 mps 752 mmHg 44%
10:00 +28°C° 0 mm 2 mps 752 mmHg 40%
11:00 +29°C° 0 mm 2 mps 752 mmHg 36%
12:00 +30°C° 0 mm 2 mps 752 mmHg 34%
13:00 +31°C° 0 mm 2 mps 751 mmHg 32%
14:00 +32°C° 0 mm 2 mps 751 mmHg 30%
15:00 +32°C° 0 mm 2 mps 751 mmHg 31%
16:00 +32°C° 0 mm 2 mps 751 mmHg 33%
17:00 +32°C° 0 mm 2 mps 751 mmHg 34%
18:00 +29°C° 0 mm 2 mps 750 mmHg 40%
19:00 +27°C° 0 mm 2 mps 750 mmHg 45%
20:00 +25°C° 0 mm 1 mps 750 mmHg 51%
21:00 +24°C° 0 mm 1 mps 750 mmHg 53%
22:00 +24°C° 0 mm 1 mps 750 mmHg 56%
23:00 +23°C° 0 mm 1 mps 750 mmHg 58%
Show more